• In Kazakhstan
  • List of Countries
  • For 7 days
  • Water Temperature
  • Weather Map
  • News
  • Weather Widgets
  • user-avatar
    Login

    Hourly Weather Kakanj

    Today, 17 October, Thursday

    Time Temperature Precipitation Wind Pressure Humidity
    00:00 +13°C° 0 mm 0 mps 724 mmHg 91%
    01:00 +14°C° 0 mm 1 mps 724 mmHg 93%
    02:00 +13°C° 0 mm 1 mps 724 mmHg 93%
    03:00 +13°C° 0 mm 1 mps 724 mmHg 93%
    04:00 +13°C° 0 mm 1 mps 724 mmHg 93%
    05:00 +13°C° 0 mm 1 mps 724 mmHg 92%
    06:00 +14°C° 0 mm 1 mps 724 mmHg 90%
    07:00 +15°C° 0 mm 1 mps 725 mmHg 86%
    08:00 +18°C° 0 mm 1 mps 725 mmHg 76%
    09:00 +20°C° 0 mm 1 mps 725 mmHg 66%
    10:00 +23°C° 0 mm 1 mps 725 mmHg 56%
    11:00 +23°C° 0 mm 1 mps 725 mmHg 53%
    12:00 +24°C° 0 mm 1 mps 725 mmHg 50%
    13:00 +25°C° 0 mm 1 mps 725 mmHg 46%
    14:00 +24°C° 0 mm 1 mps 725 mmHg 51%
    15:00 +21°C° 0 mm 0 mps 725 mmHg 56%
    16:00 +21°C° 0 mm 0 mps 724 mmHg 61%
    17:00 +19°C° 0 mm 0 mps 724 mmHg 68%
    18:00 +17°C° 0 mm 0 mps 724 mmHg 76%
    19:00 +15°C° 0 mm 0 mps 724 mmHg 84%
    20:00 +15°C° 0 mm 1 mps 724 mmHg 85%
    21:00 +15°C° 0 mm 1 mps 724 mmHg 86%
    22:00 +15°C° 0 mm 1 mps 724 mmHg 88%
    23:00 +14°C° 0 mm 1 mps 724 mmHg 88%

    Tomorrow, 18 October, Friday

    Time Temperature Precipitation Wind Pressure Humidity
    00:00 +14°C° 0 mm 1 mps 724 mmHg 89%
    01:00 +14°C° 0 mm 1 mps 724 mmHg 89%
    02:00 +14°C° 0 mm 1 mps 724 mmHg 90%
    03:00 +13°C° 0 mm 1 mps 724 mmHg 91%
    04:00 +13°C° 0 mm 1 mps 724 mmHg 91%
    05:00 +13°C° 0 mm 1 mps 724 mmHg 90%
    06:00 +14°C° 0 mm 1 mps 724 mmHg 89%
    07:00 +14°C° 0 mm 1 mps 724 mmHg 88%
    08:00 +16°C° 0 mm 1 mps 724 mmHg 79%
    09:00 +20°C° 0 mm 1 mps 724 mmHg 70%
    10:00 +22°C° 0 mm 1 mps 725 mmHg 60%
    11:00 +23°C° 0 mm 1 mps 724 mmHg 56%
    12:00 +24°C° 0 mm 1 mps 724 mmHg 52%
    13:00 +24°C° 0 mm 1 mps 724 mmHg 47%
    14:00 +23°C° 0 mm 1 mps 724 mmHg 52%
    15:00 +22°C° 0 mm 1 mps 724 mmHg 56%
    16:00 +22°C° 0 mm 1 mps 723 mmHg 61%
    17:00 +20°C° 0 mm 1 mps 723 mmHg 67%
    18:00 +18°C° 0 mm 1 mps 723 mmHg 72%
    19:00 +15°C° 0 mm 1 mps 723 mmHg 78%
    20:00 +15°C° 0 mm 1 mps 723 mmHg 80%
    21:00 +14°C° 0 mm 1 mps 724 mmHg 83%
    22:00 +14°C° 0 mm 1 mps 724 mmHg 85%
    23:00 +14°C° 0 mm 1 mps 724 mmHg 85%

    Day after tomorrow, 19 October, Saturday

    Time Temperature Precipitation Wind Pressure Humidity
    00:00 +13°C° 0 mm 1 mps 724 mmHg 86%
    01:00 +13°C° 0 mm 1 mps 724 mmHg 87%
    02:00 +13°C° 0 mm 1 mps 724 mmHg 86%
    03:00 +12°C° 0 mm 1 mps 724 mmHg 86%
    04:00 +12°C° 0 mm 1 mps 723 mmHg 86%
    05:00 +12°C° 0 mm 1 mps 723 mmHg 83%
    06:00 +13°C° 0 mm 1 mps 723 mmHg 81%
    07:00 +13°C° 0 mm 1 mps 724 mmHg 79%
    08:00 +15°C° 0 mm 1 mps 724 mmHg 69%
    09:00 +19°C° 0 mm 1 mps 724 mmHg 59%
    10:00 +22°C° 0 mm 1 mps 724 mmHg 49%
    11:00 +23°C° 0 mm 1 mps 724 mmHg 46%
    12:00 +24°C° 0 mm 2 mps 724 mmHg 43%
    13:00 +25°C° 0 mm 2 mps 724 mmHg 40%
    14:00 +24°C° 0 mm 2 mps 724 mmHg 46%
    15:00 +23°C° 0 mm 1 mps 723 mmHg 52%
    16:00 +21°C° 0 mm 1 mps 723 mmHg 57%
    17:00 +20°C° 0 mm 1 mps 723 mmHg 65%
    18:00 +18°C° 0 mm 1 mps 723 mmHg 72%
    19:00 +15°C° 0 mm 1 mps 723 mmHg 79%
    20:00 +15°C° 0 mm 2 mps 724 mmHg 82%
    21:00 +14°C° 0 mm 2 mps 724 mmHg 84%
    22:00 +14°C° 0 mm 2 mps 724 mmHg 87%
    23:00 +13°C° 0 mm 2 mps 724 mmHg 87%

    20 October, Sunday

    Time Temperature Precipitation Wind Pressure Humidity
    00:00 +13°C° 0 mm 2 mps 724 mmHg 88%
    01:00 +13°C° 0 mm 1 mps 724 mmHg 88%
    02:00 +13°C° 0 mm 2 mps 724 mmHg 87%
    03:00 +12°C° 0 mm 2 mps 724 mmHg 86%
    04:00 +12°C° 0 mm 2 mps 724 mmHg 84%
    05:00 +12°C° 0 mm 2 mps 724 mmHg 82%
    06:00 +13°C° 0 mm 2 mps 724 mmHg 79%
    07:00 +13°C° 0 mm 2 mps 724 mmHg 76%
    08:00 +16°C° 0 mm 1 mps 725 mmHg 66%
    09:00 +19°C° 0 mm 1 mps 725 mmHg 56%
    10:00 +22°C° 0 mm 1 mps 726 mmHg 47%
    11:00 +23°C° 0 mm 1 mps 725 mmHg 43%
    12:00 +24°C° 0 mm 1 mps 725 mmHg 40%
    13:00 +25°C° 0 mm 2 mps 725 mmHg 36%
    14:00 +24°C° 0 mm 1 mps 725 mmHg 41%
    15:00 +23°C° 0 mm 1 mps 725 mmHg 46%
    16:00 +22°C° 0 mm 1 mps 725 mmHg 51%
    17:00 +20°C° 0 mm 1 mps 725 mmHg 56%
    18:00 +18°C° 0 mm 1 mps 725 mmHg 60%
    19:00 +15°C° 0 mm 2 mps 725 mmHg 65%
    20:00 +15°C° 0 mm 2 mps 725 mmHg 66%
    21:00 +14°C° 0 mm 2 mps 725 mmHg 67%
    22:00 +14°C° 0 mm 2 mps 725 mmHg 68%
    23:00 +14°C° 0 mm 2 mps 725 mmHg 67%

    21 October, Monday

    Time Temperature Precipitation Wind Pressure Humidity
    00:00 +14°C° 0 mm 2 mps 725 mmHg 67%
    01:00 +13°C° 0 mm 2 mps 725 mmHg 66%
    02:00 +13°C° 0 mm 2 mps 725 mmHg 65%
    03:00 +13°C° 0 mm 2 mps 725 mmHg 63%
    04:00 +13°C° 0 mm 2 mps 725 mmHg 62%
    05:00 +14°C° 0 mm 2 mps 725 mmHg 61%
    06:00 +14°C° 0 mm 2 mps 725 mmHg 60%
    07:00 +14°C° 0 mm 1 mps 726 mmHg 60%
    08:00 +18°C° 0 mm 1 mps 726 mmHg 53%
    09:00 +21°C° 0 mm 1 mps 726 mmHg 47%
    10:00 +24°C° 0 mm 1 mps 727 mmHg 40%
    11:00 +25°C° 0 mm 1 mps 727 mmHg 38%
    12:00 +27°C° 0 mm 1 mps 727 mmHg 36%
    13:00 +26°C° 0 mm 0 mps 727 mmHg 34%
    14:00 +25°C° 0 mm 0 mps 726 mmHg 40%
    15:00 +23°C° 0 mm 0 mps 726 mmHg 46%
    16:00 +22°C° 0 mm 0 mps 726 mmHg 52%
    17:00 +20°C° 0 mm 0 mps 726 mmHg 54%
    18:00 +19°C° 0 mm 0 mps 726 mmHg 57%
    19:00 +19°C° 0 mm 1 mps 726 mmHg 60%
    20:00 +19°C° 0 mm 1 mps 726 mmHg 61%
    21:00 +18°C° 0 mm 1 mps 726 mmHg 62%
    22:00 +18°C° 0 mm 1 mps 726 mmHg 63%
    23:00 +16°C° 0 mm 0 mps 726 mmHg 64%

    22 October, Tuesday

    Time Temperature Precipitation Wind Pressure Humidity
    00:00 +15°C° 0 mm 0 mps 726 mmHg 65%
    01:00 +15°C° 0 mm 0 mps 727 mmHg 65%
    02:00 +15°C° 0 mm 0 mps 727 mmHg 66%
    03:00 +15°C° 0 mm 0 mps 727 mmHg 67%
    04:00 +14°C° 0 mm 0 mps 727 mmHg 68%
    05:00 +14°C° 0 mm 0 mps 727 mmHg 68%
    06:00 +14°C° 0 mm 0 mps 727 mmHg 69%
    07:00 +15°C° 0 mm 0 mps 727 mmHg 69%
    08:00 +17°C° 0 mm 0 mps 727 mmHg 62%
    09:00 +19°C° 0 mm 0 mps 728 mmHg 55%
    10:00 +22°C° 0 mm 0 mps 728 mmHg 48%
    11:00 +25°C° 0 mm 1 mps 728 mmHg 45%
    12:00 +26°C° 0 mm 1 mps 728 mmHg 42%
    13:00 +27°C° 0 mm 1 mps 728 mmHg 40%
    14:00 +25°C° 0 mm 1 mps 728 mmHg 45%
    15:00 +24°C° 0 mm 1 mps 728 mmHg 50%
    16:00 +23°C° 0 mm 1 mps 727 mmHg 56%
    17:00 +21°C° 0 mm 1 mps 727 mmHg 62%
    18:00 +19°C° 0 mm 1 mps 727 mmHg 67%
    19:00 +18°C° 0 mm 1 mps 727 mmHg 73%
    20:00 +16°C° 0 mm 1 mps 727 mmHg 74%
    21:00 +16°C° 0 mm 1 mps 728 mmHg 76%
    22:00 +15°C° 0 mm 1 mps 728 mmHg 77%
    23:00 +15°C° 0 mm 1 mps 727 mmHg 78%
    Show more